Location: *
(43.4667°N, 11.6833°E)
Time: 15:18:17
(UTC+00:00)

Aureole 1 Rocket - Pass Details

Date: 19 July 2019
Orbit: 378 x 1385 km, 73.9° (Epoch: 23 August)

Event Time Altitude Azimuth Distance (km) Brightness Sun altitude
Rises 19:26:23 0° 196° (SSW) 2,875 6.3 -6.4°
Reaches altitude 10° 19:28:21 10° 195° (SSW) 2,097 5.6 -6.7°
Maximum altitude 19:33:07 83° 109° (ESE) 828 3.6 -7.4°
Drops below altitude 10° 19:39:33 10° 22° (NNE) 2,801 6.6 -8.3°
Sets 19:42:30 0° 22° (NNE) 3,918 7.4 -8.7°
